Location: Aydie
(43.5695°N, 0.1043°W)
Time: 13:33:18
(UTC+00:00)

SJ 16-02 - Pass Details

Date: 17 November 2025
Orbit: 585 x 594 km, 75.0° (Epoch: 06 December)

Event Time Altitude Azimuth Distance (km) Brightness Sun altitude
Rises 19:46:13 0° 246° (WSW) 2,829 5.5 -34.8°
Reaches altitude 10° 19:49:27 10° 273° (W) 1,932 4.7 -35.4°
Maximum altitude 19:51:42 14° 304° (NW) 1,695 4.2 -35.8°
Enters shadow 19:51:53 14° 307° (NW) 1,697 4.1 -35.8°
